Stations météo

réclame
Mon MeteoGroup
Strathallan, Grande-Bretagne (3144): Température de l'air & dewpoint: 11.07.2018 12:00:00 - 17.07.2018 12:00:00 (BST)Strathallan, Grande-Bretagne (3144): Température de l'air -20cm & Température de l'air -100cm: 11.07.2018 12:00:00 - 17.07.2018 12:00:00 (BST)Strathallan, Grande-Bretagne (3144): Vitesse du vent & gusts: 11.07.2018 12:00:00 - 17.07.2018 12:00:00 (BST)Strathallan, Grande-Bretagne (3144): Direction du vent: 11.07.2018 12:00:00 - 17.07.2018 12:00:00 (BST)Strathallan, Grande-Bretagne (3144): reduced air pressure: 11.07.2018 12:00:00 - 17.07.2018 12:00:00 (BST)Strathallan, Grande-Bretagne (3144): visibility: 11.07.2018 12:00:00 - 17.07.2018 12:00:00 (BST)Strathallan, Grande-Bretagne (3144): Quantités de précipitations: 11.07.2018 12:00:00 - 17.07.2018 12:00:00 (BST)
Date & Time tt [°C] td [°C] tt -20cm [°C] tt -100cm [°C] ff [km/h] ff [knt] fx [km/h] fx [knt] dd ppp [hPa] vv [km] rr [mm]
17.07.2018 12:00:00 17,5 9,6 - - 13 7 - - SW 1012,6 35 0,0
17.07.2018 11:00:00 16,9 10,4 - - 13 7 - - SW 1012,5 35 0,0
17.07.2018 10:00:00 17,0 10,7 18,7 16,0 15 8 - - SW 1012,4 40 0,0
17.07.2018 09:00:00 16,3 10,7 - - 13 7 - - SW 1012,5 45 0,0
17.07.2018 08:00:00 14,6 11,0 - - 5 3 - - SW 1012,4 50 0,0
17.07.2018 07:00:00 13,7 11,3 - - 5 3 - - WSW 1012,2 45 0,0
17.07.2018 06:00:00 12,2 11,2 - - 5 3 - - WSW 1012,2 45 0,0
17.07.2018 05:00:00 12,0 10,7 - - 2 1 - - WNW 1012,2 50 0,0
17.07.2018 04:00:00 12,0 10,5 - - 2 1 - - ENE 1012,3 40 0,0
17.07.2018 03:00:00 12,2 10,6 - - 4 2 - - SW 1012,4 50 0,0
17.07.2018 02:00:00 11,0 10,0 - - 5 3 - - SW 1012,7 50 0,0
17.07.2018 01:00:00 11,7 9,5 - - 0 0 - - N 1012,9 50 0,0
17.07.2018 00:00:00 12,6 9,4 - - 8 4 - - SW 1012,7 50 0,0
16.07.2018 23:00:00 13,5 9,3 - - 8 4 - - W 1012,8 50 0,0
16.07.2018 22:00:00 15,5 9,5 - - 13 7 - - SW 1012,5 45 0,0
16.07.2018 21:00:00 17,0 9,9 - - 13 7 - - SW 1012,2 45 0,0
16.07.2018 20:00:00 18,3 8,9 - - 16 9 - - SW 1011,9 40 0,0
16.07.2018 19:00:00 19,1 8,2 - - 15 8 - - SW 1011,6 30 0,0
16.07.2018 18:00:00 19,5 7,6 - - 18 10 - - SW 1011,5 50 0,0
16.07.2018 17:00:00 20,4 8,7 - - 18 10 - - WSW 1011,4 35 0,0
16.07.2018 16:00:00 19,7 9,8 - - 18 10 - - SW 1011,5 30 0,0
16.07.2018 15:00:00 21,0 9,4 - - 18 10 - - SW 1011,6 35 0,0
16.07.2018 14:00:00 20,2 8,5 - - 21 11 - - SW 1011,6 35 0,0
16.07.2018 13:00:00 19,2 11,3 - - 21 11 - - SW 1011,5 40 0,0
16.07.2018 12:00:00 19,3 11,5 - - 21 11 - - SW 1011,6 45 0,0
16.07.2018 11:00:00 18,0 12,7 - - 18 10 - - SW 1011,4 40 0,0
16.07.2018 10:00:00 16,8 13,4 18,7 15,9 21 11 - - SW 1011,0 50 0,0
16.07.2018 09:00:00 16,6 14,4 - - 18 10 - - SW 1010,7 45 0,0
16.07.2018 08:00:00 15,5 14,7 - - 15 8 - - SW 1010,5 50 0,0
16.07.2018 07:00:00 16,7 15,9 - - 9 5 - - SW 1010,2 5 0,0
16.07.2018 06:00:00 17,2 16,0 - - 2 1 - - N 1010,1 30 0,0
16.07.2018 05:00:00 16,9 15,7 - - 2 1 - - NNE 1010,1 40 0,2
16.07.2018 04:00:00 17,4 15,3 - - 2 1 - - S 1010,5 45 0,0
16.07.2018 03:00:00 17,5 15,3 - - 5 3 - - SSW 1010,6 50 0,0
16.07.2018 02:00:00 17,7 15,4 - - 8 4 - - SSW 1010,9 50 0,0
16.07.2018 01:00:00 17,5 15,4 - - 8 4 - - SW 1011,2 50 0,0
16.07.2018 00:00:00 17,6 15,5 - - 5 3 - - SSW 1011,4 50 0,0
15.07.2018 23:00:00 17,8 15,4 - - 5 3 - - SSW 1011,5 50 0,0
15.07.2018 22:00:00 18,0 15,4 - - 8 4 - - SSW 1011,6 50 0,0
15.07.2018 21:00:00 18,1 15,8 - - 8 4 - - SW 1011,7 50 0,0
15.07.2018 20:00:00 18,6 15,9 - - 11 6 - - WSW 1011,7 45 0,0
15.07.2018 19:00:00 19,0 16,0 - - 9 5 - - SW 1011,9 50 0,0
15.07.2018 18:00:00 18,7 16,1 - - 9 5 - - WSW 1012,2 35 0,0
15.07.2018 17:00:00 18,8 16,7 - - 13 7 - - WSW 1012,4 35 0,0
15.07.2018 16:00:00 18,9 16,3 - - 15 8 - - WSW 1012,6 26 0,0
15.07.2018 15:00:00 19,5 15,9 - - 16 9 - - SW 1012,6 45 0,0
15.07.2018 14:00:00 19,6 15,7 - - 15 8 - - SW 1012,7 45 0,0
15.07.2018 13:00:00 18,9 16,1 - - 15 8 - - SW 1012,9 40 0,2
15.07.2018 12:00:00 18,2 16,8 - - 8 4 - - W 1013,2 5 0,0
15.07.2018 11:00:00 19,4 15,1 - - 15 8 - - SW 1013,1 40 0,0
15.07.2018 10:00:00 19,4 14,5 19,2 15,9 13 7 - - SW 1013,1 45 0,0
15.07.2018 09:00:00 18,7 14,8 - - 5 3 - - W 1013,2 45 0,0
15.07.2018 08:00:00 18,8 14,7 - - 13 7 - - WSW 1013,2 45 0,0
15.07.2018 07:00:00 17,8 14,4 - - 11 6 - - W 1013,1 35 0,0
15.07.2018 06:00:00 17,6 14,1 - - 11 6 - - WSW 1012,9 35 0,0
15.07.2018 05:00:00 17,7 13,8 - - 13 7 - - SW 1013,1 50 0,0
15.07.2018 04:00:00 17,7 13,8 - - 11 6 - - SW 1013,3 50 0,0
15.07.2018 03:00:00 17,8 13,8 - - 9 5 - - WSW 1013,6 35 0,0
15.07.2018 02:00:00 18,0 13,3 - - 9 5 - - SW 1013,7 50 0,0
15.07.2018 01:00:00 18,4 13,2 - - 11 6 - - SW 1014,1 45 0,0
15.07.2018 00:00:00 18,8 13,3 - - 11 6 - - SW 1014,3 45 0,0
14.07.2018 23:00:00 19,4 13,2 - - 13 7 - - WSW 1014,6 50 0,0
14.07.2018 22:00:00 19,7 13,3 - - 9 5 - - WSW 1014,6 50 0,0
14.07.2018 21:00:00 20,3 12,9 - - 13 7 - - WSW 1014,5 45 0,0
14.07.2018 20:00:00 20,4 12,9 - - 15 8 - - WSW 1014,7 45 0,0
14.07.2018 19:00:00 21,9 12,2 - - 24 13 - - WSW 1014,7 50 0,0
14.07.2018 18:00:00 23,1 10,8 - - 24 13 - - WSW 1014,7 28 0,0
14.07.2018 17:00:00 23,4 10,2 - - 24 13 - - WSW 1015,0 35 0,0
14.07.2018 16:00:00 23,9 12,3 - - 24 13 46 25 SW 1015,0 50 0,0
14.07.2018 15:00:00 23,2 13,0 - - 26 14 50 27 SW 1015,5 45 0,0
14.07.2018 14:00:00 22,2 11,8 - - 28 15 - - SW 1016,2 40 0,0
14.07.2018 13:00:00 21,4 12,8 - - 21 11 - - WSW 1016,5 45 0,0
14.07.2018 12:00:00 21,1 13,5 - - 18 10 - - SW 1016,8 45 0,0
14.07.2018 11:00:00 19,8 12,7 - - 22 12 - - SW 1017,1 50 0,0
14.07.2018 10:00:00 18,1 12,5 18,7 15,7 22 12 - - SW 1017,5 35 0,0
14.07.2018 09:00:00 17,3 12,4 - - 18 10 - - SW 1017,8 35 0,0
14.07.2018 08:00:00 16,1 12,3 - - 13 7 - - SW 1018,1 50 0,0
14.07.2018 07:00:00 14,3 11,4 - - 11 6 - - W 1018,4 50 0,0
14.07.2018 06:00:00 11,8 11,1 - - 5 3 - - W 1018,7 50 0,0
14.07.2018 05:00:00 10,8 9,8 - - 4 2 - - W 1019,1 45 0,0
14.07.2018 04:00:00 11,6 10,5 - - 2 1 - - N 1019,2 50 0,0
14.07.2018 03:00:00 12,4 10,6 - - 9 5 - - WSW 1019,5 50 0,0
14.07.2018 02:00:00 13,3 11,2 - - 5 3 - - W 1019,5 50 0,0
14.07.2018 01:00:00 13,2 11,4 - - 4 2 - - W 1019,7 50 0,0
14.07.2018 00:00:00 15,1 12,2 - - 9 5 - - SW 1019,9 50 0,0
13.07.2018 23:00:00 16,3 12,7 - - 11 6 - - W 1019,8 50 0,0
13.07.2018 22:00:00 18,0 12,3 - - 11 6 - - SSW 1019,5 50 0,0
13.07.2018 21:00:00 19,8 12,1 - - 9 5 - - SW 1019,1 50 0,0
13.07.2018 20:00:00 20,0 14,9 - - 9 5 - - S 1019,3 30 0,0
13.07.2018 19:00:00 22,5 13,2 - - 9 5 - - WSW 1019,3 40 0,0
13.07.2018 18:00:00 22,4 13,2 - - 15 8 - - WSW 1019,8 45 0,0
13.07.2018 17:00:00 22,4 13,2 - - 9 5 - - WSW 1020,0 45 0,0
13.07.2018 16:00:00 21,8 13,6 - - 8 4 - - NW 1020,6 20 0,0
13.07.2018 15:00:00 20,9 13,0 - - 8 4 - - W 1021,0 45 0,0
13.07.2018 14:00:00 19,2 13,5 - - 2 1 - - SE 1021,8 40 0,0
13.07.2018 13:00:00 18,8 14,1 - - 5 3 - - S 1022,1 35 0,0
13.07.2018 12:00:00 17,9 13,3 - - 5 3 - - W 1022,4 35 0,0
13.07.2018 11:00:00 17,5 12,9 - - 2 1 - - NNE 1022,4 24 0,0
13.07.2018 10:00:00 16,8 13,2 18,7 15,7 4 2 - - NE 1022,6 45 0,0
13.07.2018 09:00:00 15,4 12,7 - - 2 1 - - NE 1023,0 50 0,0
13.07.2018 08:00:00 14,7 13,0 - - 5 3 - - ENE 1023,0 50 0,0
13.07.2018 07:00:00 14,1 12,7 - - 4 2 - - NE 1023,1 45 0,0
13.07.2018 06:00:00 13,9 12,5 - - 2 1 - - NNE 1023,3 50 0,0
13.07.2018 05:00:00 13,8 12,5 - - 5 3 - - NE 1023,3 40 0,0
13.07.2018 04:00:00 14,1 12,7 - - 5 3 - - ENE 1023,5 28 0,0
13.07.2018 03:00:00 14,3 12,6 - - 5 3 - - ENE 1023,5 30 0,0
13.07.2018 02:00:00 14,4 12,5 - - 8 4 - - NE 1023,7 30 0,0
13.07.2018 01:00:00 14,5 12,5 - - 8 4 - - ENE 1024,0 50 0,0
13.07.2018 00:00:00 14,7 12,7 - - 8 4 - - ENE 1024,0 40 0,0
12.07.2018 23:00:00 15,0 12,8 - - 9 5 - - ENE 1023,8 45 0,0
12.07.2018 22:00:00 15,7 12,9 - - 8 4 - - ENE 1023,4 50 0,0
12.07.2018 21:00:00 16,5 13,3 - - 9 5 - - ENE 1022,9 50 0,0
12.07.2018 20:00:00 17,7 13,5 - - 13 7 - - ENE 1022,5 40 0,0
12.07.2018 19:00:00 18,8 14,5 - - 9 5 - - ENE 1022,5 50 0,0
12.07.2018 18:00:00 19,9 13,7 - - 9 5 - - ESE 1022,6 45 0,0
12.07.2018 17:00:00 18,7 13,4 - - 4 2 - - SSE 1023,0 45 0,0
12.07.2018 16:00:00 18,4 13,7 - - 11 6 - - S 1023,3 50 0,0
12.07.2018 15:00:00 18,2 13,5 - - 4 2 - - E 1023,3 50 0,0
12.07.2018 14:00:00 18,0 13,0 - - 4 2 - - E 1023,5 50 0,0
12.07.2018 13:00:00 17,5 13,8 - - 5 3 - - ESE 1023,8 25 0,0
12.07.2018 12:00:00 16,9 14,1 - - 2 1 - - W 1023,9 30 0,0
12.07.2018 11:00:00 16,3 13,5 - - 2 1 - - SSE 1023,9 40 0,0
12.07.2018 10:00:00 15,5 13,7 19,0 15,7 2 1 - - WNW 1023,9 6 0,0
12.07.2018 09:00:00 14,7 13,5 - - 0 0 - - N 1024,0 6 0,0
12.07.2018 08:00:00 14,3 13,8 - - 2 1 - - N 1024,0 5 0,0
12.07.2018 07:00:00 13,9 13,6 - - 2 1 - - ENE 1023,7 14 0,2
12.07.2018 06:00:00 13,8 13,4 - - 2 1 - - E 1023,7 6 0,0
12.07.2018 05:00:00 14,1 13,3 - - 0 0 - - N 1023,7 8 0,0
12.07.2018 04:00:00 14,2 13,3 - - 2 1 - - NNW 1023,8 26 0,0
12.07.2018 03:00:00 14,1 13,2 - - 4 2 - - NW 1023,9 24 0,0
12.07.2018 02:00:00 14,1 13,1 - - 4 2 - - N 1024,1 30 0,0
12.07.2018 01:00:00 14,9 12,4 - - 8 4 - - NE 1024,0 45 0,0
12.07.2018 00:00:00 15,5 12,1 - - 8 4 - - E 1024,1 45 0,0
11.07.2018 23:00:00 16,0 12,3 - - 8 4 - - E 1023,9 50 0,0
11.07.2018 22:00:00 16,7 12,2 - - 8 4 - - E 1023,6 50 0,0
11.07.2018 21:00:00 17,9 12,6 - - 4 2 - - SE 1022,9 50 0,0
11.07.2018 20:00:00 19,4 12,8 - - 9 5 - - E 1022,6 50 0,0
11.07.2018 19:00:00 20,3 13,0 - - 9 5 - - ENE 1022,5 50 0,0
11.07.2018 18:00:00 20,1 13,3 - - 11 6 - - ESE 1022,5 45 0,0
11.07.2018 17:00:00 20,4 13,4 - - 9 5 - - ENE 1022,6 40 0,0
11.07.2018 16:00:00 21,0 13,5 - - 11 6 - - ENE 1022,8 45 0,0
11.07.2018 15:00:00 20,6 13,0 - - 8 4 - - E 1023,0 40 0,0
11.07.2018 14:00:00 20,2 14,5 - - 9 5 - - E 1023,3 27 0,0
11.07.2018 13:00:00 19,4 14,9 - - 5 3 - - NNE 1023,7 24 0,0
11.07.2018 12:00:00 17,3 14,2 - - 2 1 - - NE 1024,1 50 0,0

tt = Température de l'air
td = dewpoint
tt -20cm = Température de l'air -20cm
tt -100cm = Température de l'air -100cm
ff = Vitesse du vent
fx = gusts
dd = Direction du vent
ppp = reduced air pressure
vv = visibility
rr = Quantités de précipitations

stations d'obs. à proximité